• In Latvia
  • List of Countries
  • For 7 days
  • Water Temperature
  • Satellite Maps
  • Weather Map
  • Weather Widgets
  • user-avatar
    Login

    Hourly Weather Exeter

    Today, 24 January, Wednesday

    Time Temperature Precipitation Wind Pressure Humidity
    00:00 +9°C° 0 mm 10 mps 751 mmHg 92%
    01:00 +9°C° 0.1 mm 11 mps 750 mmHg 92%
    02:00 +9°C° 0.1 mm 12 mps 749 mmHg 92%
    03:00 +10°C° 0.1 mm 12 mps 748 mmHg 91%
    04:00 +10°C° 0.2 mm 13 mps 747 mmHg 90%
    05:00 +10°C° 0.2 mm 14 mps 746 mmHg 89%
    06:00 +10°C° 0.2 mm 15 mps 745 mmHg 89%
    07:00 +10°C° 0.9 mm 15 mps 745 mmHg 89%
    08:00 +9°C° 0.9 mm 15 mps 745 mmHg 89%
    09:00 +9°C° 0.9 mm 14 mps 745 mmHg 89%
    10:00 +8°C° 1.2 mm 13 mps 745 mmHg 87%
    11:00 +7°C° 1.2 mm 11 mps 746 mmHg 85%
    12:00 +6°C° 1.2 mm 10 mps 746 mmHg 84%
    13:00 +6°C° 0.1 mm 10 mps 746 mmHg 81%
    14:00 +6°C° 0.1 mm 10 mps 746 mmHg 78%
    15:00 +7°C° 0.1 mm 10 mps 746 mmHg 75%
    16:00 +6°C° 0 mm 9 mps 747 mmHg 77%
    17:00 +6°C° 0 mm 9 mps 747 mmHg 78%
    18:00 +5°C° 0 mm 8 mps 747 mmHg 80%
    19:00 +5°C° 0 mm 8 mps 747 mmHg 80%
    20:00 +5°C° 0 mm 8 mps 747 mmHg 80%
    21:00 +5°C° 0 mm 8 mps 747 mmHg 79%
    22:00 +4°C° 0.1 mm 8 mps 748 mmHg 79%
    23:00 +4°C° 0.1 mm 8 mps 748 mmHg 79%

    Tomorrow, 25 January, Thursday

    Time Temperature Precipitation Wind Pressure Humidity
    00:00 +4°C° 0.1 mm 8 mps 748 mmHg 79%
    01:00 +4°C° 0.1 mm 8 mps 747 mmHg 79%
    02:00 +4°C° 0.1 mm 8 mps 747 mmHg 79%
    03:00 +4°C° 0.1 mm 8 mps 747 mmHg 79%
    04:00 +4°C° 0.1 mm 7 mps 747 mmHg 80%
    05:00 +3°C° 0.1 mm 7 mps 747 mmHg 80%
    06:00 +3°C° 0.1 mm 7 mps 747 mmHg 80%
    07:00 +3°C° 0.1 mm 7 mps 747 mmHg 80%
    08:00 +3°C° 0.1 mm 7 mps 747 mmHg 79%
    09:00 +3°C° 0.1 mm 7 mps 747 mmHg 79%
    10:00 +4°C° 0.1 mm 8 mps 747 mmHg 76%
    11:00 +5°C° 0.1 mm 8 mps 747 mmHg 73%
    12:00 +6°C° 0.1 mm 9 mps 747 mmHg 70%
    13:00 +6°C° 0.1 mm 8 mps 747 mmHg 70%
    14:00 +6°C° 0.1 mm 8 mps 747 mmHg 71%
    15:00 +6°C° 0.1 mm 8 mps 747 mmHg 71%
    16:00 +5°C° 0.3 mm 7 mps 747 mmHg 75%
    17:00 +5°C° 0.3 mm 7 mps 747 mmHg 79%
    18:00 +4°C° 0.3 mm 6 mps 747 mmHg 84%
    19:00 +4°C° 0.2 mm 6 mps 748 mmHg 84%
    20:00 +3°C° 0.2 mm 6 mps 749 mmHg 85%
    21:00 +3°C° 0.2 mm 6 mps 749 mmHg 85%
    22:00 +3°C° 0 mm 6 mps 750 mmHg 86%
    23:00 +3°C° 0 mm 6 mps 750 mmHg 86%

    Day after tomorrow, 26 January, Friday

    Time Temperature Precipitation Wind Pressure Humidity
    00:00 +3°C° 0 mm 6 mps 751 mmHg 87%
    01:00 +3°C° 0 mm 6 mps 751 mmHg 87%
    02:00 +3°C° 0 mm 6 mps 752 mmHg 87%
    03:00 +3°C° 0 mm 7 mps 752 mmHg 87%
    04:00 +3°C° 0 mm 7 mps 753 mmHg 86%
    05:00 +3°C° 0 mm 7 mps 753 mmHg 86%
    06:00 +3°C° 0 mm 7 mps 754 mmHg 86%
    07:00 +3°C° 0 mm 7 mps 754 mmHg 86%
    08:00 +3°C° 0 mm 7 mps 755 mmHg 86%
    09:00 +3°C° 0 mm 6 mps 756 mmHg 86%
    10:00 +4°C° 0 mm 7 mps 756 mmHg 83%
    11:00 +5°C° 0 mm 7 mps 757 mmHg 80%
    12:00 +6°C° 0 mm 7 mps 758 mmHg 76%
    13:00 +6°C° 0 mm 7 mps 758 mmHg 77%
    14:00 +7°C° 0 mm 6 mps 758 mmHg 77%
    15:00 +7°C° 0 mm 6 mps 758 mmHg 77%
    16:00 +6°C° 0 mm 5 mps 759 mmHg 80%
    17:00 +5°C° 0 mm 5 mps 760 mmHg 83%
    18:00 +3°C° 0 mm 5 mps 760 mmHg 86%
    19:00 +4°C° 0 mm 4 mps 761 mmHg 86%
    20:00 +4°C° 0 mm 4 mps 761 mmHg 86%
    21:00 +4°C° 0 mm 3 mps 761 mmHg 86%
    22:00 +4°C° 0 mm 3 mps 761 mmHg 86%
    23:00 +4°C° 0 mm 3 mps 762 mmHg 86%

    27 January, Saturday

    Time Temperature Precipitation Wind Pressure Humidity
    00:00 +5°C° 0 mm 2 mps 762 mmHg 86%
    01:00 +4°C° 0 mm 3 mps 761 mmHg 87%
    02:00 +5°C° 0 mm 3 mps 761 mmHg 87%
    03:00 +5°C° 0 mm 3 mps 761 mmHg 88%
    04:00 +5°C° 0 mm 3 mps 761 mmHg 89%
    05:00 +5°C° 0 mm 4 mps 761 mmHg 91%
    06:00 +6°C° 0 mm 4 mps 761 mmHg 93%
    07:00 +6°C° 0.1 mm 4 mps 761 mmHg 93%
    08:00 +7°C° 0.1 mm 4 mps 762 mmHg 94%
    09:00 +7°C° 0.1 mm 4 mps 762 mmHg 95%
    10:00 +8°C° 0.2 mm 4 mps 762 mmHg 95%
    11:00 +8°C° 0.2 mm 4 mps 762 mmHg 94%
    12:00 +10°C° 0.2 mm 4 mps 763 mmHg 94%
    13:00 +10°C° 0.1 mm 4 mps 763 mmHg 94%
    14:00 +10°C° 0.1 mm 4 mps 763 mmHg 95%
    15:00 +10°C° 0.1 mm 4 mps 763 mmHg 96%
    16:00 +10°C° 0 mm 4 mps 763 mmHg 96%
    17:00 +10°C° 0 mm 4 mps 763 mmHg 96%
    18:00 +10°C° 0 mm 4 mps 764 mmHg 96%
    19:00 +10°C° 0 mm 4 mps 764 mmHg 96%
    20:00 +10°C° 0 mm 4 mps 764 mmHg 96%
    21:00 +10°C° 0 mm 4 mps 765 mmHg 96%
    22:00 +10°C° 0 mm 4 mps 765 mmHg 96%
    23:00 +10°C° 0 mm 3 mps 765 mmHg 96%

    28 January, Sunday

    Time Temperature Precipitation Wind Pressure Humidity
    00:00 +10°C° 0 mm 3 mps 766 mmHg 96%
    01:00 +10°C° 0 mm 4 mps 766 mmHg 96%
    02:00 +10°C° 0 mm 4 mps 766 mmHg 96%
    03:00 +10°C° 0 mm 4 mps 766 mmHg 97%
    04:00 +10°C° 0 mm 4 mps 766 mmHg 96%
    05:00 +10°C° 0 mm 4 mps 766 mmHg 96%
    06:00 +10°C° 0 mm 4 mps 767 mmHg 96%
    07:00 +10°C° 0 mm 4 mps 767 mmHg 96%
    08:00 +10°C° 0 mm 4 mps 767 mmHg 96%
    09:00 +10°C° 0 mm 4 mps 768 mmHg 96%
    10:00 +11°C° 0 mm 4 mps 768 mmHg 94%
    11:00 +12°C° 0 mm 5 mps 768 mmHg 92%
    12:00 +12°C° 0 mm 5 mps 768 mmHg 90%
    13:00 +12°C° 0 mm 5 mps 768 mmHg 90%
    14:00 +12°C° 0 mm 5 mps 768 mmHg 89%
    15:00 +12°C° 0 mm 5 mps 768 mmHg 89%
    16:00 +11°C° 0 mm 4 mps 768 mmHg 91%
    17:00 +11°C° 0 mm 4 mps 768 mmHg 93%
    18:00 +10°C° 0 mm 3 mps 768 mmHg 95%
    19:00 +8°C° 0 mm 4 mps 768 mmHg 95%
    20:00 +8°C° 0 mm 4 mps 768 mmHg 95%
    21:00 +8°C° 0 mm 4 mps 768 mmHg 95%
    22:00 +8°C° 0 mm 4 mps 768 mmHg 95%
    23:00 +7°C° 0 mm 4 mps 768 mmHg 95%

    29 January, Monday

    Time Temperature Precipitation Wind Pressure Humidity
    00:00 +7°C° 0 mm 5 mps 768 mmHg 94%
    01:00 +7°C° 0 mm 5 mps 768 mmHg 94%
    02:00 +8°C° 0 mm 5 mps 768 mmHg 93%
    03:00 +8°C° 0 mm 5 mps 767 mmHg 92%
    04:00 +8°C° 0 mm 5 mps 767 mmHg 91%
    05:00 +8°C° 0 mm 4 mps 767 mmHg 89%
    06:00 +8°C° 0 mm 4 mps 767 mmHg 88%
    07:00 +7°C° 0 mm 4 mps 767 mmHg 88%
    08:00 +7°C° 0 mm 4 mps 767 mmHg 87%
    09:00 +7°C° 0 mm 4 mps 767 mmHg 87%
    10:00 +8°C° 0 mm 5 mps 767 mmHg 83%
    11:00 +10°C° 0 mm 5 mps 767 mmHg 79%
    12:00 +12°C° 0 mm 5 mps 767 mmHg 75%
    13:00 +12°C° 0 mm 5 mps 767 mmHg 75%
    14:00 +12°C° 0 mm 5 mps 766 mmHg 75%
    15:00 +12°C° 0 mm 5 mps 766 mmHg 75%
    16:00 +9°C° 0 mm 5 mps 766 mmHg 80%
    17:00 +8°C° 0 mm 5 mps 766 mmHg 84%
    18:00 +7°C° 0 mm 5 mps 765 mmHg 88%
    19:00 +7°C° 0 mm 5 mps 765 mmHg 88%
    20:00 +7°C° 0 mm 6 mps 765 mmHg 87%
    21:00 +7°C° 0 mm 6 mps 765 mmHg 87%
    22:00 +8°C° 0 mm 6 mps 765 mmHg 85%
    23:00 +8°C° 0 mm 7 mps 764 mmHg 83%
    Show more